Temperature
22 23 24 24 24 24 23 21 21 21 21 20 19 19 19 20 20 20 20 20 20 19 19 19 19 19 18 18 18 18 17 17 17 17 17 17 16 16 16 16 16 16 16 16
22 23 24 24 24 24 23 23 22 22 20 20 19 19 19 19 19 19 19 19 19 19 19 18 19 19 18 18 18 18 17 17 17 17 16 16 16 16 15 15 15 15 15 15
20 21 22 22 23 23 22 22 21 20 19 19 18 18 18 19 19 19 19 19 19 19 19 19 19 19 18 18 18 17 17 17 17 17 16 16 16 16 15 15 15 15 15 14
18 20 21 20 21 22 21 20 19 19 19 19 18 18 18 19 19 18 19 19 19 18 18 18 18 18 18 18 17 17 17 17 16 16 16 16 15 15 15 14 14 14 14 14
17 18 20 21 21 21 19 18 18 18 18 18 18 18 17 18 18 18 18 18 18 18 18 18 18 18 17 17 17 17 16 16 16 16 16 15 15 15 14 14 14 13 13 13
17 19 19 19 20 21 19 17 17 17 17 17 17 16 16 17 17 17 18 18 17 17 17 17 17 17 17 16 16 16 15 15 15 15 15 15 14 14 14 13 13 13 13 12
17 17 17 18 19 20 18 17 17 17 17 17 16 16 16 16 17 17 17 17 17 16 16 16 16 16 16 16 15 15 15 15 15 14 14 14 14 13 13 12 12 12 12 11
15 17 17 17 17 16 16 16 17 17 17 17 16 16 16 16 16 16 16 16 16 16 15 15 15 15 15 14 14 14 14 14 14 13 13 13 13 12 12 12 12 11 11 11
15 15 15 16 16 16 16 16 16 16 16 16 15 15 15 15 15 15 15 15 15 15 14 14 14 15 14 14 14 14 14 13 13 12 12 12 12 11 11 11 11 10 10 10
14 14 14 15 16 16 16 16 16 16 16 15 15 14 14 14 14 14 14 14 14 14 14 13 13 14 14 13 13 13 13 12 12 12 11 11 11 11 11 10 10 10 10 10
13 14 14 14 14 14 15 15 15 15 15 15 14 14 14 13 13 13 13 13 13 13 13 12 12 13 13 12 13 12 12 12 11 11 11 11 10 10 10 10 10 10 9 9
13 13 12 12 13 14 14 14 14 14 13 14 14 13 13 12 12 12 12 12 12 12 12 12 12 12 12 12 12 12 12 11 11 11 11 10 10 9 9 9 9 9 8 8
13 13 13 13 13 13 13 13 13 13 13 13 13 13 12 12 11 11 11 11 11 11 11 11 11 11 11 11 12 12 11 11 11 10 10 10 10 10 9 8 8 8 7 7
13 13 12 12 12 12 13 12 12 12 12 12 12 12 11 11 11 11 10 10 11 11 10 11 11 11 11 11 11 11 11 11 10 10 10 9 9 9 9 8 8 7 7 6
12 13 12 11 11 11 11 11 11 11 11 10 10 10 10 10 10 10 10 10 10 10 10 10 10 10 10 10 11 10 10 10 10 10 9 9 9 8 8 8 7 7 6 6
12 11 11 11 11 10 10 10 10 10 10 10 10 10 10 10 9 9 9 9 10 10 10 10 10 10 10 10 10 10 10 10 10 9 9 9 8 8 8 7 7 6 6 6
11 10 10 10 10 10 10 10 10 9 9 9 9 9 9 9 9 9 9 9 9 9 9 9 9 10 10 10 10 10 10 9 9 9 9 8 8 8 7 7 7 6 6 5
12 11 11 10 10 10 9 9 9 9 9 9 9 9 9 9 9 9 9 9 9 9 9 9 9 9 9 9 9 9 9 9 9 9 9 8 8 8 7 7 6 6 5 5
12 11 11 10 10 10 9 9 9 9 9 9 9 9 9 9 9 9 9 9 9 9 9 9 9 9 9 9 9 9 9 9 9 8 8 8 7 7 7 6 6 5 5 5
11 11 10 10 10 10 9 9 9 9 9 9 9 9 9 9 9 9 9 9 9 9 9 9 9 9 9 9 9 9 9 9 8 8 8 7 7 7 6 6 6 5 5 4
10 10 10 10 9 9 9 9 9 9 9 9 9 9 9 9 9 9 9 8 8 8 9 9 9 9 9 9 9 9 9 8 8 8 7 7 7 6 6 6 5 5 4 4
10 10 10 9 9 9 9 9 9 9 9 9 9 9 9 9 9 9 9 8 8 8 8 8 8 9 9 9 8 8 8 8 8 7 7 7 6 6 5 5 5 4 4 4
10 10 10 10 10 10 9 9 9 9 9 9 9 9 9 9 9 9 8 8 8 8 8 8 8 8 8 8 8 8 8 7 7 7 7 6 6 6 5 5 4 4 4 3
10 10 10 10 10 10 9 9 10 9 9 9 9 9 9 9 9 9 9 8 8 8 8 8 8 8 8 8 8 7 7 7 7 6 6 6 5 5 5 5 4 4 4 3
10 10 10 10 10 10 10 10 10 9 9 9 9 9 9 9 9 8 8 8 8 8 8 7 7 7 7 7 7 7 7 6 6 6 6 5 5 5 5 4 4 4 3 3
10 10 10 10 10 10 10 10 10 9 9 9 9 9 9 9 9 8 8 8 8 7 7 7 7 7 7 7 7 6 6 6 6 6 5 5 5 4 4 4 4 3 3 3
10 10 10 10 10 10 10 10 10 9 9 9 9 9 9 9 8 8 8 8 7 7 7 7 7 7 7 6 6 6 6 6 5 5 5 5 4 4 4 4 3 3 3 3
Wind_Speed
3 2 1 1 2 1 2 6 7 7 8 9 12 10 8 8 7 8 8 8 8 8 7 7 7 7 7 7 7 8 8 7 7 7 7 7 7 7 7 7 6 6 5 5
4 4 4 3 3 3 1 1 3 3 3 4 5 6 6 7 9 10 9 10 9 8 8 8 8 8 7 7 7 8 8 7 7 7 8 8 9 9 8 8 7 7 6 6
2 4 5 2 2 1 2 2 3 2 3 4 5 6 8 9 9 9 8 9 9 8 8 8 8 9 8 7 7 7 8 7 7 8 8 8 9 9 9 8 8 9 8 8
2 3 2 6 2 5 7 8 6 4 3 5 7 6 5 6 8 7 7 7 7 7 7 7 7 8 8 8 8 8 8 8 7 8 9 9 9 10 10 9 9 9 8 8
4 3 3 3 3 2 5 5 6 5 5 6 8 7 6 4 6 6 5 5 5 7 9 8 9 10 11 10 10 10 9 8 8 9 10 10 11 11 10 11 11 9 8 9
4 4 4 4 5 2 6 3 4 5 5 5 5 4 1 2 6 6 6 6 6 7 9 10 9 10 12 11 10 10 9 9 9 10 11 11 11 11 10 11 12 11 11 9
4 3 3 4 5 3 4 3 2 2 3 4 2 3 5 6 6 6 6 7 8 9 9 8 9 12 13 12 11 10 11 11 11 11 11 11 11 11 11 11 12 11 11 10
3 2 4 5 5 3 3 2 2 3 3 4 5 7 8 8 8 8 8 9 9 10 9 8 9 13 14 12 10 11 13 13 12 11 11 11 12 11 11 11 12 11 11 9
3 4 2 3 4 2 2 3 2 3 4 8 8 7 8 8 8 8 9 10 10 11 11 9 8 11 14 11 11 13 14 13 12 12 11 10 11 11 10 9 9 8 8 8
2 0 2 4 4 4 3 2 1 3 6 8 9 10 10 10 8 9 9 10 11 12 12 11 10 11 12 12 13 15 15 13 11 12 12 11 9 8 8 8 8 8 7 7
0 1 3 4 5 4 3 3 3 3 4 8 11 11 12 11 10 9 10 10 10 11 12 11 11 12 12 12 14 15 14 13 12 12 12 12 11 8 8 6 7 9 6 6
4 3 1 2 3 3 2 2 3 6 6 6 10 12 13 12 11 11 11 12 12 13 12 11 12 12 10 10 13 15 13 11 10 10 10 10 11 11 15 11 14 13 11 9
3 2 2 1 2 2 3 4 7 8 9 9 9 12 13 13 11 12 13 13 14 13 12 11 12 11 9 9 10 12 12 11 9 9 9 8 9 10 9 9 12 11 11 11
4 4 3 2 3 4 6 9 10 10 11 11 11 13 14 14 14 14 13 12 13 13 12 11 11 10 8 9 11 11 11 11 10 8 8 7 7 7 8 8 6 4 6 8
3 4 5 6 6 6 8 11 13 12 13 13 12 14 15 15 15 13 12 12 13 13 12 11 11 9 7 9 10 10 9 8 8 8 7 7 7 6 6 6 6 4 3 4
6 7 9 9 9 9 10 12 13 13 13 14 14 14 14 15 15 14 12 12 13 12 10 10 9 7 7 9 9 8 8 11 10 8 7 7 7 7 6 6 5 4 4 3
9 8 9 10 10 11 10 11 12 13 14 15 14 14 15 16 15 14 12 11 11 10 9 9 8 7 7 8 8 6 7 8 11 9 7 7 7 7 6 6 5 4 3 3
8 9 10 11 12 12 12 12 12 13 14 14 15 14 14 14 14 12 11 11 11 10 8 6 6 7 7 7 6 6 6 6 6 7 7 7 7 6 6 6 6 6 4 5
12 13 12 12 12 12 11 12 12 12 13 13 14 13 12 12 11 11 10 11 10 8 5 6 10 8 7 7 7 6 7 8 7 7 7 9 8 7 6 6 5 5 5 4
13 13 13 13 12 13 13 12 12 12 11 12 13 12 11 10 10 10 10 9 5 4 4 6 7 6 6 6 8 6 7 8 7 7 7 7 7 7 6 6 6 5 5 5
14 14 15 14 13 13 12 12 12 12 11 12 12 12 11 10 10 9 9 7 3 5 7 8 6 4 4 6 9 7 7 7 7 7 7 7 7 6 6 6 6 5 5 4
13 14 14 13 13 11 10 9 11 12 11 11 11 11 11 10 9 8 7 5 4 7 6 5 4 6 8 9 7 6 7 7 7 6 6 6 7 6 6 5 5 5 4 4
12 12 12 12 12 11 10 10 10 10 10 10 10 10 9 7 7 7 5 3 4 8 6 4 6 10 11 7 6 6 6 7 6 6 6 6 6 6 6 6 5 5 4 4
12 11 10 10 11 11 11 9 9 8 9 8 8 9 9 7 5 4 5 7 9 9 5 6 10 11 9 6 6 6 6 6 6 6 5 5 5 5 5 5 5 4 4 5
11 11 10 10 9 8 8 8 8 8 8 7 7 7 6 6 6 5 5 6 9 8 5 6 9 10 7 5 6 5 5 5 6 6 6 6 6 5 4 4 4 4 4 3
10 9 8 7 7 7 7 7 6 6 6 6 5 5 5 5 6 6 5 6 7 7 5 3 4 6 5 5 5 5 5 5 6 5 5 5 5 5 4 4 5 4 4 4
9 7 6 6 5 6 7 7 7 6 6 7 6 5 6 6 5 5 6 5 5 4 4 3 3 3 4 4 4 4 4 4 4 4 4 4 4 4 4 5 4 4 5 5
Wind_Direction
179 205 106 14 2 54 148 178 183 211 191 208 199 190 175 160 146 149 155 154 158 166 171 166 163 161 166 172 174 172 168 176 177 163 154 149 144 138 131 130 133 128 121 108
21 31 52 28 1 15 13 134 167 151 215 226 166 150 156 159 153 162 169 165 164 163 161 165 164 160 159 164 168 167 168 170 158 148 142 140 136 131 126 121 112 106 101 96
327 352 47 332 275 73 54 34 126 151 219 147 130 156 168 167 161 163 160 157 159 160 158 161 160 156 156 157 148 142 142 143 143 140 139 138 137 127 122 116 105 95 93 92
126 49 225 245 287 95 84 51 54 79 99 143 147 134 110 124 140 143 145 147 147 143 137 135 134 134 130 126 124 124 123 124 128 127 126 125 122 119 114 107 101 96 92 89
131 169 258 304 355 67 104 52 25 63 75 95 108 83 52 64 113 129 133 125 128 133 128 122 123 124 118 115 115 113 114 114 114 117 117 117 117 114 111 106 99 92 85 79
135 157 213 257 309 338 100 85 3 60 89 108 96 109 183 91 102 108 112 109 108 109 111 114 118 119 115 111 109 109 109 107 105 107 111 113 112 109 106 105 103 96 84 74
147 183 235 281 318 45 110 205 285 91 116 119 108 162 139 115 103 100 99 100 99 99 101 106 111 112 109 108 108 108 106 103 100 98 102 107 107 107 108 105 102 96 89 75
123 162 243 323 38 90 175 195 117 97 114 113 123 122 121 118 111 107 102 99 99 99 98 96 105 112 110 110 111 108 105 101 98 97 102 103 104 105 105 107 104 99 92 78
173 193 234 43 93 114 127 114 92 105 134 139 141 141 131 125 119 111 107 105 105 106 100 91 95 113 116 117 113 107 102 98 95 92 90 94 102 105 104 102 104 101 95 86
54 14 26 42 56 43 54 80 87 139 147 145 147 144 134 127 119 111 104 103 107 107 105 99 97 103 111 113 109 104 101 97 95 93 87 80 80 89 101 104 107 103 97 93
152 318 11 23 26 14 32 61 78 98 127 143 143 140 135 130 123 116 108 104 104 106 108 106 103 102 106 110 111 106 103 100 96 94 95 87 78 68 83 81 113 116 112 111
206 219 201 296 348 11 50 72 108 114 105 116 135 134 128 125 122 118 114 110 105 103 103 102 100 99 100 107 113 113 110 108 107 105 102 102 99 80 55 72 84 91 102 106
165 156 148 145 44 61 95 98 105 111 114 113 117 123 123 120 116 112 109 108 107 105 103 101 99 97 97 100 106 112 118 119 117 115 114 112 111 111 100 65 64 76 83 83
129 116 94 86 86 84 98 98 99 98 99 102 110 112 113 113 111 110 108 107 106 102 99 98 95 92 95 101 104 107 112 118 122 124 124 123 121 121 121 119 104 65 47 63
95 110 122 111 95 88 94 102 101 99 99 97 100 106 110 111 109 106 104 104 101 98 95 93 91 88 90 98 101 104 109 115 119 123 126 126 123 118 113 112 110 100 65 45
107 104 109 107 103 100 102 106 108 107 107 105 104 102 104 105 104 101 99 100 100 98 96 93 89 88 92 95 97 98 106 115 117 119 120 120 121 120 119 119 115 107 99 91
126 124 122 116 110 105 104 106 110 111 110 108 106 106 107 106 103 99 95 92 94 93 91 90 86 80 81 89 99 102 102 109 112 114 119 122 124 126 129 125 120 113 103 108
126 126 124 124 121 115 110 109 111 111 112 113 112 110 109 109 110 108 105 99 92 83 78 84 85 82 79 87 102 106 105 102 103 108 110 112 116 118 120 118 118 115 102 94
117 119 118 118 119 118 117 117 115 115 116 118 116 114 113 114 114 111 106 102 98 89 71 79 86 81 76 83 99 101 104 103 98 99 103 107 105 108 113 115 116 116 116 107
119 119 117 115 114 114 114 114 113 112 114 116 115 114 114 114 113 111 105 97 99 114 105 86 77 71 69 83 99 104 108 109 107 104 103 104 107 107 109 114 115 111 108 108
123 122 119 117 114 112 114 116 117 116 116 117 119 120 121 119 116 115 110 102 83 89 90 83 75 69 71 91 97 102 105 108 109 111 113 113 111 111 111 113 112 112 112 109
124 121 120 120 119 117 115 115 117 116 114 114 115 117 116 114 111 105 102 118 120 104 93 79 75 76 86 88 91 96 101 106 110 115 117 119 121 121 120 121 119 119 119 118
121 121 121 121 121 119 113 113 116 117 117 119 120 122 123 124 125 125 120 120 114 105 98 92 91 87 89 88 92 96 100 105 110 116 122 125 127 129 129 128 129 129 129 130
117 116 116 117 116 114 115 116 114 115 117 118 122 127 126 119 104 103 121 124 120 111 102 101 92 89 91 94 96 97 100 105 109 112 115 116 120 124 129 132 136 138 140 141
114 113 113 116 116 120 122 119 112 111 109 108 111 116 121 127 130 132 124 125 128 117 105 100 98 97 96 103 104 106 108 114 119 122 121 124 126 130 136 141 143 142 146 154
107 108 111 114 119 122 125 122 119 120 117 112 106 107 110 112 117 121 123 131 133 126 121 113 110 106 110 115 118 121 121 120 115 116 125 129 133 135 140 144 144 150 159 169
98 97 99 97 97 109 114 117 119 120 124 125 118 115 119 120 119 122 123 128 133 133 134 133 125 122 124 128 128 126 126 128 129 130 133 137 142 145 150 152 159 165 172 175
Height
1447 1444 1443 1445 1446 1447 1453 1459 1468 1464 1462 1458 1455 1456 1457 1457 1459 1462 1465 1468 1471 1474 1476 1478 1479 1481 1484 1486 1488 1490 1492 1495 1497 1499 1502 1505 1507 1510 1513 1516 1519 1522 1524 1526
1449 1443 1443 1447 1445 1445 1447 1449 1453 1455 1459 1450 1451 1455 1457 1458 1459 1461 1464 1466 1470 1472 1474 1475 1477 1479 1482 1484 1487 1489 1491 1494 1496 1499 1501 1503 1505 1508 1511 1514 1517 1519 1521 1524
1461 1450 1449 1459 1448 1447 1449 1448 1451 1458 1458 1452 1454 1455 1456 1457 1459 1461 1464 1465 1468 1470 1472 1474 1475 1478 1480 1483 1486 1488 1490 1492 1495 1498 1500 1502 1505 1507 1510 1512 1515 1517 1519 1522
1463 1460 1470 1460 1443 1443 1448 1452 1451 1451 1452 1451 1451 1454 1457 1458 1460 1462 1463 1465 1467 1469 1471 1473 1475 1477 1480 1483 1486 1488 1490 1492 1494 1497 1499 1502 1504 1506 1509 1511 1513 1516 1518 1520
1468 1470 1464 1453 1446 1446 1452 1460 1455 1453 1452 1452 1453 1456 1459 1459 1460 1462 1464 1466 1467 1469 1470 1472 1475 1477 1480 1482 1484 1487 1490 1492 1494 1496 1498 1501 1503 1506 1508 1510 1513 1515 1518 1519
1464 1468 1472 1459 1446 1444 1448 1465 1458 1454 1455 1455 1455 1462 1463 1462 1462 1463 1465 1466 1467 1469 1470 1472 1475 1478 1480 1482 1484 1487 1490 1492 1495 1497 1499 1501 1503 1506 1508 1510 1512 1515 1517 1519
1462 1465 1462 1452 1445 1444 1462 1466 1457 1455 1455 1455 1457 1460 1462 1462 1463 1464 1465 1466 1468 1469 1471 1473 1476 1478 1480 1483 1485 1488 1491 1493 1495 1498 1500 1502 1504 1506 1509 1511 1513 1515 1517 1520
1463 1467 1466 1450 1448 1454 1458 1455 1454 1454 1455 1456 1457 1459 1460 1462 1463 1464 1465 1467 1469 1471 1472 1475 1477 1479 1481 1484 1487 1489 1492 1494 1496 1499 1501 1504 1505 1508 1510 1512 1514 1516 1518 1520
1460 1462 1456 1452 1452 1453 1453 1453 1453 1453 1454 1455 1458 1459 1461 1463 1465 1466 1467 1467 1470 1473 1475 1477 1479 1481 1482 1485 1488 1490 1493 1495 1498 1501 1503 1506 1508 1510 1513 1515 1516 1518 1520 1522
1457 1455 1454 1453 1452 1452 1452 1452 1452 1452 1452 1453 1456 1458 1460 1463 1465 1467 1468 1469 1471 1474 1476 1479 1481 1484 1486 1488 1490 1492 1494 1498 1501 1503 1505 1508 1511 1514 1515 1517 1519 1521 1522 1523
1457 1455 1453 1452 1452 1452 1451 1451 1451 1452 1452 1452 1454 1457 1460 1462 1465 1467 1469 1471 1473 1476 1479 1482 1484 1486 1488 1491 1493 1495 1498 1501 1504 1506 1509 1512 1514 1517 1519 1520 1522 1523 1524 1525
1457 1454 1455 1454 1452 1451 1450 1449 1449 1450 1451 1453 1454 1456 1459 1463 1466 1469 1471 1473 1476 1479 1482 1485 1487 1489 1492 1494 1496 1498 1501 1504 1507 1510 1512 1515 1516 1519 1522 1523 1525 1526 1526 1527
1451 1451 1452 1453 1452 1451 1449 1448 1449 1449 1450 1453 1455 1457 1460 1464 1468 1471 1473 1476 1479 1482 1485 1489 1491 1493 1496 1499 1500 1502 1504 1507 1511 1513 1515 1518 1520 1521 1523 1525 1527 1528 1529 1529
1450 1451 1451 1451 1451 1450 1449 1449 1450 1451 1452 1454 1456 1459 1462 1466 1470 1473 1477 1480 1483 1487 1490 1493 1495 1498 1501 1503 1505 1506 1509 1511 1514 1516 1519 1521 1523 1524 1526 1527 1528 1530 1531 1532
1450 1450 1450 1451 1451 1451 1451 1450 1452 1454 1455 1458 1460 1463 1466 1469 1473 1478 1482 1485 1488 1491 1495 1498 1500 1503 1506 1507 1509 1511 1512 1515 1517 1519 1521 1523 1525 1527 1528 1530 1531 1532 1533 1534
1449 1450 1450 1451 1452 1453 1453 1454 1455 1457 1460 1462 1465 1468 1471 1474 1478 1482 1487 1490 1493 1496 1499 1502 1504 1507 1509 1511 1513 1514 1516 1518 1520 1522 1523 1525 1527 1529 1530 1531 1532 1533 1534 1535
1448 1450 1452 1453 1454 1455 1457 1458 1459 1462 1464 1467 1470 1474 1477 1480 1484 1488 1492 1496 1498 1501 1503 1505 1508 1511 1513 1514 1516 1518 1519 1521 1523 1524 1526 1527 1529 1530 1531 1533 1533 1534 1535 1536
1448 1450 1452 1454 1456 1458 1461 1463 1465 1467 1470 1473 1476 1480 1483 1486 1489 1493 1497 1500 1503 1506 1508 1511 1512 1514 1516 1518 1519 1521 1522 1524 1525 1526 1527 1529 1530 1532 1533 1534 1535 1536 1536 1537
1451 1453 1456 1458 1460 1462 1465 1467 1470 1473 1476 1479 1482 1485 1489 1492 1496 1499 1502 1505 1507 1510 1513 1515 1516 1518 1519 1520 1522 1523 1524 1526 1527 1528 1530 1531 1532 1533 1534 1535 1536 1537 1537 1537
1454 1457 1459 1462 1464 1466 1469 1472 1475 1478 1482 1485 1488 1491 1495 1498 1501 1503 1506 1509 1512 1514 1516 1517 1519 1520 1521 1523 1524 1525 1526 1528 1529 1530 1531 1532 1533 1535 1536 1536 1537 1537 1538 1538
1458 1461 1464 1466 1469 1472 1475 1478 1480 1484 1487 1490 1493 1496 1499 1502 1505 1508 1510 1512 1515 1517 1519 1520 1521 1522 1523 1524 1526 1527 1528 1529 1530 1531 1532 1533 1535 1536 1536 1537 1537 1538 1538 1537
1461 1465 1468 1471 1474 1478 1481 1484 1486 1489 1492 1495 1497 1500 1503 1506 1509 1511 1513 1515 1517 1519 1521 1522 1523 1524 1525 1526 1527 1528 1529 1530 1531 1532 1533 1534 1535 1536 1537 1537 1537 1537 1537 1537
1465 1469 1472 1476 1479 1482 1485 1488 1491 1494 1496 1499 1502 1504 1506 1509 1511 1513 1515 1518 1519 1521 1522 1524 1525 1526 1527 1527 1528 1529 1530 1531 1532 1533 1534 1535 1536 1536 1537 1537 1537 1537 1537 1537
1470 1474 1477 1480 1483 1486 1489 1493 1496 1498 1501 1503 1506 1508 1510 1511 1514 1516 1518 1519 1521 1522 1523 1525 1526 1527 1527 1528 1529 1530 1531 1532 1533 1533 1534 1535 1536 1536 1537 1537 1537 1537 1537 1536
1474 1478 1482 1485 1488 1490 1493 1496 1499 1502 1504 1506 1509 1511 1513 1514 1516 1517 1519 1521 1522 1523 1524 1526 1526 1527 1528 1529 1530 1531 1531 1532 1533 1534 1535 1535 1536 1536 1537 1537 1537 1537 1536 1536
1479 1482 1485 1488 1491 1494 1497 1499 1502 1504 1506 1509 1511 1513 1515 1516 1518 1519 1520 1522 1523 1524 1525 1526 1527 1528 1529 1530 1531 1531 1532 1533 1534 1534 1535 1535 1536 1536 1536 1536 1536 1536 1535 1535
1484 1487 1490 1493 1495 1497 1500 1502 1504 1506 1508 1510 1512 1514 1516 1517 1519 1520 1521 1522 1523 1525 1526 1527 1528 1529 1530 1530 1531 1532 1533 1533 1534 1534 1535 1535 1536 1536 1536 1536 1535 1535 1534 1533